TimeEDT,TemperatureF,Dew PointF,Humidity,Sea Level PressureIn,VisibilityMPH,Wind Direction,Wind SpeedMPH,Gust SpeedMPH,PrecipitationIn,Events,Conditions,WindDirDegrees,DateUTC
12:53 AM,66.9,66.0,97,30.04,6.0,Calm,Calm,-,N/A,,Clear,0,2013-09-08 04:53:00
1:53 AM,66.0,64.9,96,30.03,5.0,Calm,Calm,-,N/A,,Clear,0,2013-09-08 05:53:00
2:53 AM,64.9,64.0,97,30.02,5.0,Calm,Calm,-,N/A,,Clear,0,2013-09-08 06:53:00
3:53 AM,64.9,63.0,93,30.00,6.0,Calm,Calm,-,N/A,,Clear,0,2013-09-08 07:53:00
4:53 AM,64.0,63.0,96,30.01,5.0,Calm,Calm,-,N/A,,Clear,0,2013-09-08 08:53:00
5:53 AM,63.0,62.1,97,30.01,4.0,Calm,Calm,-,N/A,,Clear,0,2013-09-08 09:53:00
6:53 AM,63.0,62.1,97,30.01,5.0,Calm,Calm,-,N/A,,Clear,0,2013-09-08 10:53:00
7:53 AM,64.0,63.0,96,30.04,4.0,Calm,Calm,-,N/A,,Clear,0,2013-09-08 11:53:00
8:53 AM,69.1,66.0,90,30.04,7.0,Calm,Calm,-,N/A,,Clear,0,2013-09-08 12:53:00
9:53 AM,75.9,69.1,79,30.04,8.0,Calm,Calm,-,N/A,,Clear,0,2013-09-08 13:53:00
10:53 AM,80.1,66.9,64,30.04,10.0,WNW,3.5,-,N/A,,Clear,290,2013-09-08 14:53:00
11:53 AM,82.9,68.0,60,30.03,10.0,West,4.6,-,N/A,,Clear,280,2013-09-08 15:53:00
12:53 PM,86.0,68.0,55,30.02,9.0,Variable,4.6,-,N/A,,Clear,0,2013-09-08 16:53:00
1:53 PM,87.1,68.0,53,30.01,10.0,Calm,Calm,-,N/A,,Clear,0,2013-09-08 17:53:00
2:53 PM,88.0,66.0,48,29.99,10.0,West,5.8,-,N/A,,Scattered Clouds,270,2013-09-08 18:53:00
3:53 PM,89.1,66.0,46,29.97,10.0,WNW,5.8,-,N/A,,Partly Cloudy,300,2013-09-08 19:53:00
4:53 PM,88.0,66.9,49,29.96,9.0,West,6.9,-,N/A,,Partly Cloudy,270,2013-09-08 20:53:00
5:53 PM,87.1,66.9,51,29.96,9.0,WNW,5.8,-,N/A,,Clear,290,2013-09-08 21:53:00
6:53 PM,84.9,69.1,59,29.96,9.0,WNW,3.5,-,N/A,,Clear,290,2013-09-08 22:53:00
7:53 PM,77.0,73.0,88,29.96,6.0,Calm,Calm,-,N/A,,Clear,0,2013-09-08 23:53:00
8:53 PM,73.9,73.0,97,29.97,6.0,Calm,Calm,-,N/A,,Clear,0,2013-09-09 00:53:00
9:53 PM,73.0,71.1,93,29.99,5.0,Calm,Calm,-,N/A,,Clear,0,2013-09-09 01:53:00
10:53 PM,73.0,71.1,93,30.00,5.0,Calm,Calm,-,N/A,,Clear,0,2013-09-09 02:53:00
11:53 PM,72.0,70.0,93,30.00,5.0,Calm,Calm,-,N/A,,Clear,0,2013-09-09 03:53:00